Regional Weather Roundup
Issued by NWS Green Bay, WI

Home | Current Version | Previous Version | Graphics & Text | Print | Product List | Glossary Off
Versions: 1 2 3 4 5 6 7 8 9 10 11 12 13 14 15 16 17 18 19 20 21 22 23 24 25 26 27 28 29 30 31 32 33 34 35 36 37 38 39 40 41 42 43 44 45 46 47 48 49 50

000
ASUS43 KGRB 051959
RWRGRB

NORTH-CENTRAL AND NORTHEAST WISCONSIN REGIONAL WEATHER ROUNDUP
NATIONAL WEATHER SERVICE GREEN BAY WI
200 PM CST THU MAR 05 2015

WIZ005-009-010>012-018-019-052100-
NORTH CENTRAL WISCONSIN

CITY           SKY/WX    TMP DP  RH WIND       PRES   REMARKS
IRONWOOD       SUNNY     10  -9  40 W13       30.29F WCI  -5
MANITOWISH WTR NOT AVBL
ARBOR VITAE    NOT AVBL
EAGLE RIVER    NOT AVBL
LAND O LAKES   NOT AVBL
RHINELANDER    SUNNY     11  -7  44 W15       30.30  WCI  -5
PHILLIPS       SUNNY      8  -9  44 SW10      30.33F WCI  -6
ANTIGO         NOT AVBL
TOMAHAWK       NOT AVBL
MERRILL        NOT AVBL
$$

WIZ013-073-052100-
NORTHEAST WISCONSIN

CITY           SKY/WX    TMP DP  RH WIND       PRES   REMARKS
IRON MOUNTAIN  SUNNY     15  -8  35 W14       30.30  WCI   0
MARINETTE      SUNNY     14  -6  41 W7G16     30.38F WCI   4
$$

WIZ017-030-035>037-045-052100-
CENTRAL WISCONSIN

CITY           SKY/WX    TMP DP  RH WIND       PRES   REMARKS
MEDFORD        NOT AVBL
WAUSAU         SUNNY      6  -8  52 W14       30.38  WCI -11
MOSINEE        SUNNY      7  -8  51 W12       30.40F WCI  -9
MARSHFIELD     SUNNY      8  -9  45 W9        30.39  WCI  -5
WISC RAPIDS    SUNNY     12  -7  42 SW8G16    30.42  WCI   0
STEVENS POINT  NOT AVBL
WAUPACA        NOT AVBL
SHAWANO        NOT AVBL
CLINTONVILLE   SUNNY     14  -8  37 W8        30.41F WCI   3
$$

WIZ038-039-048-051-052100-
FOX VALLEY

CITY           SKY/WX    TMP DP  RH WIND       PRES   REMARKS
NWS GREEN BAY  SUNNY     13  -5  44 W8        30.42F WCI   2
APPLETON       SUNNY     12  -8  40 W10G17    30.42S WCI  -1
OSHKOSH        SUNNY     14  -4  44 W10       30.43  WCI   1
FOND DU LAC    SUNNY     13  -5  44 NW7       30.44S WCI   3
$$

WIZ022-050-052-052100-
EAST CENTRAL WISCONSIN

CITY           SKY/WX    TMP DP  RH WIND       PRES   REMARKS
STURGEON BAY   SUNNY     10  -6  48 SW12      30.41F WCI  -4
MANITOWOC      NOT AVBL
SHEBOYGAN      SUNNY     12  -3  51 NW12      30.44  WCI  -2
$$

LMZ563-521-522-541>543-052100-
LAKESHORE

STATION/POSITION TIME  TEMP    WIND        PRES    VSBY  WAVE
                       AIR SEA DIR/SP/G                  HT/PER
                 (UTC) (F)     (DEG/KT/KT) (MB)    (MI)  (FT/S)
KEWAUNEE LKSHORE 1900   13     260/  7/ 12 1029.3F
NORTHPORT PIER   1900   12     240/  4/ 13 1029.5F
SISTER BAY LKSHO 1900   27     270/  8/  9   N/A
CHAMBERS ISLAND  1900   10     170/  7/ 11 1029.8F
MENOMINEE LKSHOR 1900   13     210/  5     1029.8F
$$



USA.gov is the U.S. government's official web portal to all federal, state and local government web resources and services.